Location: Amsterdam
(30.7274°N, 84.4357°W)
Time: 01:54:06
(UTC+00:00)

Tiros 1 - Pass Details

Date: 18 February 2026
Orbit: 618 x 649 km, 48.4° (Epoch: 13 March)

Event Time Altitude Azimuth Distance (km) Brightness Sun altitude
Rises 21:42:07 0° 297° (WNW) 2,882 11.0 20.5°
Reaches altitude 10° 21:44:46 10° 283° (WNW) 1,974 10.6 20.0°
Maximum altitude 21:48:23 24° 230° (SW) 1,293 10.8 19.3°
Drops below altitude 10° 21:52:00 10° 176° (S) 1,974 10.0 18.6°
Sets 21:54:40 0° 163° (SSE) 2,881 10.6 18.1°
